TimeEST,TemperatureF,Dew PointF,Humidity,Sea Level PressureIn,VisibilityMPH,Wind Direction,Wind SpeedMPH,Gust SpeedMPH,PrecipitationIn,Events,Conditions,WindDirDegrees,DateUTC
12:56 AM,19.0,14.0,81,29.86,5.0,WNW,9.2,-,0.00,Snow,Light Snow,300,2013-03-03 05:56:00
1:12 AM,19.4,14.0,80,29.77,1.5,NW,9.2,-,0.00,Snow,Light Snow,310,2013-03-03 06:12:00
1:18 AM,19.4,14.0,80,29.77,3.0,NW,11.5,-,0.00,Snow,Light Snow,310,2013-03-03 06:18:00
1:56 AM,19.0,14.0,81,29.86,2.5,NW,11.5,-,0.00,Snow,Light Snow,310,2013-03-03 06:56:00
2:18 AM,17.6,12.2,79,29.76,2.0,WNW,10.4,-,0.00,Snow,Light Snow,300,2013-03-03 07:18:00
2:26 AM,17.6,12.2,79,29.75,2.5,WNW,11.5,-,0.00,Snow,Light Snow,300,2013-03-03 07:26:00
2:35 AM,17.6,12.2,79,29.75,3.0,WNW,12.7,-,0.00,Snow,Light Snow,300,2013-03-03 07:35:00
3:56 AM,18.0,12.9,81,29.84,4.0,WNW,11.5,-,0.00,Snow,Light Snow,300,2013-03-03 08:56:00
4:51 AM,17.6,12.2,79,29.75,9.0,WNW,9.2,-,0.00,Snow,Light Snow,300,2013-03-03 09:51:00
4:56 AM,17.1,12.9,84,29.85,9.0,WNW,6.9,-,0.00,,Overcast,300,2013-03-03 09:56:00
5:21 AM,17.6,12.2,79,29.75,4.0,WNW,8.1,-,0.00,Snow,Light Snow,300,2013-03-03 10:21:00
5:56 AM,17.1,12.0,81,29.85,4.0,NW,11.5,-,0.00,Snow,Light Snow,310,2013-03-03 10:56:00
6:46 AM,17.6,12.2,79,29.75,7.0,NW,10.4,-,0.00,Snow,Light Snow,320,2013-03-03 11:46:00
6:56 AM,17.1,12.0,81,29.86,8.0,NW,10.4,-,0.00,Snow,Light Snow,320,2013-03-03 11:56:00
7:33 AM,17.6,12.2,79,29.76,7.0,NW,12.7,-,0.00,Snow,Light Snow,320,2013-03-03 12:33:00
7:56 AM,18.0,12.9,81,29.87,3.0,NW,8.1,-,0.00,Snow,Light Snow,310,2013-03-03 12:56:00
8:22 AM,17.6,12.2,79,29.76,1.8,NW,13.8,-,0.00,Snow,Light Snow,310,2013-03-03 13:22:00
8:35 AM,17.6,12.2,79,29.76,1.2,NW,9.2,-,0.00,Snow,Light Snow,310,2013-03-03 13:35:00
8:56 AM,19.0,12.0,74,29.87,4.0,NW,10.4,-,0.00,Snow,Light Snow,310,2013-03-03 13:56:00
9:09 AM,19.4,12.2,74,29.77,3.0,WNW,9.2,-,0.00,Snow,Light Snow,300,2013-03-03 14:09:00
9:18 AM,19.4,12.2,74,29.77,2.5,NW,12.7,16.1,0.00,Snow,Light Snow,310,2013-03-03 14:18:00
9:56 AM,19.9,12.9,74,29.86,3.0,WNW,11.5,-,0.00,Snow,Light Snow,300,2013-03-03 14:56:00
10:56 AM,21.0,12.9,71,29.86,5.0,WNW,10.4,-,0.00,Snow,Light Snow,290,2013-03-03 15:56:00
11:15 AM,19.4,12.2,74,29.76,2.0,NNW,11.5,-,0.00,Snow,Light Snow,330,2013-03-03 16:15:00
11:23 AM,19.4,12.2,74,29.76,1.8,NNW,10.4,-,0.00,Snow,Light Snow,340,2013-03-03 16:23:00
11:36 AM,21.2,12.2,68,29.76,3.0,NW,11.5,-,0.00,Snow,Light Snow,320,2013-03-03 16:36:00
11:56 AM,21.0,12.9,71,29.86,4.0,WNW,10.4,-,0.00,Snow,Light Snow,300,2013-03-03 16:56:00
12:56 PM,21.9,14.0,72,29.84,4.0,NW,12.7,-,0.00,Snow,Light Snow,310,2013-03-03 17:56:00
1:56 PM,21.9,14.0,72,29.83,10.0,WNW,10.4,-,0.00,,Overcast,290,2013-03-03 18:56:00
2:56 PM,21.9,14.0,72,29.83,4.0,WNW,11.5,-,0.00,Snow,Light Snow,290,2013-03-03 19:56:00
3:41 PM,21.2,14.0,74,29.74,2.0,WNW,16.1,-,0.00,Snow,Light Snow,300,2013-03-03 20:41:00
3:56 PM,21.9,14.0,72,29.84,3.0,WNW,15.0,-,0.00,Snow,Light Snow,300,2013-03-03 20:56:00
4:56 PM,19.9,12.9,74,29.86,5.0,WNW,21.9,27.6,0.00,Snow,Light Snow,290,2013-03-03 21:56:00
5:56 PM,19.9,12.9,74,29.88,4.0,NW,15.0,-,0.00,Snow,Light Snow,310,2013-03-03 22:56:00
6:56 PM,19.9,12.9,74,29.89,6.0,WNW,11.5,-,0.00,Snow,Light Snow,300,2013-03-03 23:56:00
7:56 PM,19.9,12.9,74,29.90,3.0,WNW,12.7,21.9,0.00,Snow,Light Snow,300,2013-03-04 00:56:00
8:56 PM,19.9,14.0,78,29.90,3.0,NW,13.8,-,0.00,Snow,Light Snow,320,2013-03-04 01:56:00
9:07 PM,19.4,14.0,80,29.80,2.5,NW,11.5,20.7,0.00,Snow,Light Snow,320,2013-03-04 02:07:00
9:17 PM,19.4,14.0,80,29.80,3.0,NW,15.0,19.6,0.00,Snow,Light Snow,320,2013-03-04 02:17:00
9:56 PM,19.0,12.9,77,29.91,5.0,NW,15.0,-,0.00,Snow,Light Snow,310,2013-03-04 02:56:00
10:04 PM,19.4,12.2,74,29.80,5.0,NW,16.1,24.2,0.00,Snow,Light Snow,310,2013-03-04 03:04:00
10:42 PM,19.4,12.2,74,29.80,4.0,NW,11.5,-,0.00,Snow,Light Snow,310,2013-03-04 03:42:00
10:56 PM,19.0,12.9,77,29.90,3.0,NW,15.0,-,0.00,Snow,Light Snow,310,2013-03-04 03:56:00
11:09 PM,17.6,12.2,79,29.80,2.5,NW,15.0,-,0.00,Snow,Light Snow,320,2013-03-04 04:09:00
11:41 PM,17.6,12.2,79,29.81,1.8,NW,16.1,-,0.00,Snow,Light Snow,310,2013-03-04 04:41:00
11:51 PM,17.6,12.2,79,29.81,2.0,NW,12.7,-,0.00,Snow,Light Snow,310,2013-03-04 04:51:00
11:56 PM,18.0,12.0,78,29.91,2.5,NW,12.7,-,0.00,Snow,Light Snow,310,2013-03-04 04:56:00